Hourly Weather Roundup
Issued by NWS Central Illinois

Home | Current Version | Previous Version | Text Only | Print | Product List | Glossary On
Versions: 1 2 3 4 5 6 7 8 9 10 11 12 13 14 15 16 17 18 19 20 21 22 23 24 25 26 27 28 29 30 31 32 33 34 35 36 37 38 39 40 41 42 43 44 45 46 47 48 49 50
000
NZUS43 KILX 252210
HWRILX

AREA WEATHER ROUNDUP
NATIONAL WEATHER SERVICE, LINCOLN IL
500 PM CDT MON MAY 25 2015


CITY           SKY/WX    TMP DP  RH WIND       PRES   REMARKS
BLOOMINGTON    MOSUNNY   81  62  52 SW15      29.98S HX  82
CHAMPAIGN      CLOUDY    85  56  37 S16G24    29.98S HX  84
DANVILLE       CLOUDY    81  62  52 S16       29.96S HX  82
DECATUR        PTSUNNY   82  60  47 SW16      29.97F HX  82
EFFINGHAM      CLOUDY    78  61  55 SE12G18   30.03S HX  80
FLORA          CLOUDY    77  65  66 S14       30.03S
GALESBURG      MOSUNNY   79  62  54 S16       29.93R HX  81
JACKSONVILLE   MOSUNNY   85  60  42 S15G21    29.94S HX  85
LACON          SUNNY     79  61  54 SW14G23   29.92F HX  80
LAWRENCEVILLE  CLOUDY    78  66  66 S15       30.04F HX  80
LITCHFIELD     PTSUNNY   79  65  62 S16       29.98S HX  81
$$


CITY           SKY/WX    TMP DP  RH WIND       PRES   REMARKS
LINCOLN        MOSUNNY   83  60  46 S9G18     29.93F HX  83
MACOMB         MOSUNNY   79  61  54 S14G21    29.95S HX  80
MATTOON        CLOUDY    76  65  68 S17G26    30.00F
MT CARMEL AP   CLOUDY    81  64  57 S15       30.04S HX  82
OLNEY-NOBLE AP CLOUDY    77  64  65 S10G17    30.03F
PARIS          CLOUDY    81  64  56 S22       30.01S HX  82
PEORIA         MOSUNNY   83  59  44 SW13      29.93F HX  83
PONTIAC        MOSUNNY   82  62  50 SW17G23   29.95F HX  82
RANTOUL        CLOUDY    85  58  39 S10G22    29.97F HX  84
ROBINSON       CLOUDY    78  64  62 SW13      30.05S HX  80
SPRINGFIELD    MOSUNNY   84  61  45 S16       29.95F HX  84
TAYLORVILLE    MOSUNNY   79  63  57 S14       29.97S HX  80
$$

...REGIONAL REPORTS...


CITY           SKY/WX    TMP DP  RH WIND       PRES   REMARKS
CHICAGO O`HARE PTSUNNY   78  60  53 SW18G25   29.92R
KANKAKEE       PTSUNNY   80  60  50 SW12      29.96S HX  81
MOLINE         MOSUNNY   78  60  53 S20G26    29.89R
MOUNT VERNON   CLOUDY    79  66  65 S13       30.03S HX  81
PITTSFIELD     MOSUNNY   82  63  51 S13       29.95S HX  83
QUINCY         MOSUNNY   80  63  55 S14       29.93S HX  81
ROCKFORD       MOSUNNY   80  63  55 SW17G25   29.90F HX  81
$$


CITY           SKY/WX    TMP DP  RH WIND       PRES   REMARKS
BURLINGTON     MOSUNNY   79  64  60 S17G26    29.91S HX  81
CEDAR RAPIDS   MOSUNNY   78  62  57 S17       29.85S HX  80
DES MOINES     MOSUNNY   79  62  56 SW22G28   29.81F HX  80
KIRKSVILLE     MOSUNNY   77  68  73 S14       29.91F
OTTUMWA        MOSUNNY   77  63  61 SW21G29   29.86S
ST LOUIS       PTSUNNY   85  66  53 S12G21    29.95F HX  87
$$


CITY           SKY/WX    TMP DP  RH WIND       PRES   REMARKS
TERRE HAUTE    CLOUDY    78  64  61 S17G24    30.03F HX  80
EVANSVILLE     CLOUDY    74  67  78 S8        30.07F
INDIANAPOLIS   CLOUDY    77  63  61 S17       30.03S
LAFAYETTE      CLOUDY    78  62  57 SW14G25   29.98S HX  80
MADISON        PTSUNNY   78  59  51 SW10G20   29.83S
MILWAUKEE      PTSUNNY   77  60  55 SW18G26   29.87R
$$





USA.gov is the U.S. government's official web portal to all federal, state and local government web resources and services.